Вернуться в каталог

KUIPER-00590

АктивенСвязьLEO
NORAD 69276·PAYLOAD·🇺🇸 United States

Запущен May 29, 2026 с Vandenberg Space Force Base

Loading…

Ближайшие Пролёты (ближайшие 24 часа)

TLE

СвежийSource: CelesTrak SupGP

Эпоха: Sep 15, 2026, 03:05 UTC

1 69276C 26118K   26258.12855324  .00004198  00000+0  54972-3 0  2580
2 69276  51.9032   2.9551 0000559 123.1363  90.9752 14.79915220    15

Отслеживайте KUIPER-00590 в реальном времени с AllMySat

Download on the App Store